FLOCK 2E'-15 (41764 NORAD) Tracking and Keplerian Element Data

This shows tracking and keplerian element data for the satellite.

Feedback or suggestion? Click here.




ElementValue
Catalog41764
NameFLOCK 2E'-15
Epoch Orbit10440
Epoch Day195.84208563
Epoch Year2018
RAAN197.8545
Inclination51.6305
Eccentricity0.0005241
Argument of Perigee0.3333
Mean Anonmoly359.7669
Mean Motion15.75713507
Decay Rate0.00043466
L11 41764U 98067KL 18195.84208563 .00043466 00000-0 27977-3 0 9990
L22 41764 51.6305 197.8545 0005241 0.3333 359.7669 15.75713507104402

Live tracking and technical data element details for FLOCK 2E'-15 (NORAD 41764). FLOCK 2E'-15 can be tracked NOW for your location showing map with azimuth and elevation plus other details from your city location.

Track the satellite on the map from your city or location and see movement details for azimuth, elevation, latitude, longitude, range, height, and movement on the map or in text.







IsCatalogInMostPopularTable: catalog: 41764, numindb: 94
Update: records affected: 1



GetName: 41764 FLOCK 2E'-15

Hit Count: updated at: Sun, 15 Jul 2018 23:15:36 GMT